Location: Newark
(50.6167°N, 5.6500°E)
Time: 15:04:46
(UTC+00:00)

ISS - Visible Passes

Search period start: 21 July 2019 00:00
Search period end: 31 July 2019 00:00
Orbit: 409 x 418 km, 51.6° (Epoch: 21 July)

Date Brightness Start Highest point End Pass type
(mag) Time Alt. Az. Time Alt. Az. Time Alt. Az.
21 Jul -3.8 00:14:59 10° WNW 00:18:01 62° SW 00:18:01 62° SW visible
21 Jul -3.6 20:12:19 10° SW 20:15:35 51° SSE 20:18:51 10° E visible
21 Jul -3.6 21:48:53 10° W 21:52:14 74° N 21:55:34 10° E visible
21 Jul -3.9 23:25:40 10° WNW 23:29:01 85° SSW 23:29:25 66° ESE visible
22 Jul -3.7 20:59:32 10° W 21:02:53 82° NNW 21:06:14 10° ENE visible
22 Jul -3.8 22:36:20 10° WNW 22:39:41 81° NNE 22:41:12 30° E visible
23 Jul -1.6 00:13:07 10° W 00:14:00 16° W 00:14:00 16° W visible
23 Jul -3.6 21:46:58 10° W 21:50:19 73° N 21:53:09 14° E visible
23 Jul -2.8 23:23:43 10° WNW 23:25:57 35° W 23:25:57 35° W visible
24 Jul -3.5 20:57:36 10° W 21:00:57 72° N 21:04:17 10° E visible
24 Jul -3.9 22:34:21 10° WNW 22:37:41 71° SSW 22:37:59 65° SSE visible
25 Jul -3.6 20:08:12 10° W 20:11:34 75° N 20:14:54 10° E visible
25 Jul -3.9 21:45:00 10° WNW 21:48:20 89° SSW 21:50:04 26° ESE visible
25 Jul -1.6 23:21:51 10° W 23:22:52 17° W 23:22:52 17° W visible
26 Jul -3.7 20:55:36 10° W 20:58:58 79° N 21:02:12 11° E visible
26 Jul -3.0 22:32:23 10° W 22:35:01 37° SW 22:35:01 37° SW visible
27 Jul -3.7 21:42:56 10° WNW 21:46:14 57° SSW 21:47:10 39° SE visible
28 Jul -3.8 20:53:32 10° WNW 20:56:52 77° SSW 20:59:21 17° ESE visible
28 Jul -1.8 22:30:35 10° W 22:32:09 19° WSW 22:32:09 19° WSW visible
29 Jul -3.7 20:04:07 10° WNW 20:07:29 87° N 20:10:50 10° ESE visible
29 Jul -2.8 21:40:57 10° W 21:43:58 31° SSW 21:44:22 30° SSW visible
30 Jul -3.3 20:51:26 10° W 20:54:40 45° SSW 20:56:36 20° SE visible
